sat.trackr.live / text

‹ back to catalog

AEHF-2 (USA 235)

NORAD 38254 · 2012-019A

PAYLOAD ACTIVE UNKNOWN

§ Identity

Operator
Country
US
Launch date
2012-05-04
Launch site
AFETR
Launch vehicle
Mass (kg)
RCS (m²)
11.32

Purposes: comms

External: N2YO · Heavens-Above · Gunter

§ Orbital elements

Epoch: 2026-09-20T03:09:28.554336Z

Period
1,436.10 min
Inclination
6.8655°
Eccentricity
0.0002651
Mean motion
1.00271287 rev/d
Perigee alt
35,775.6 km
Apogee alt
35,797.9 km
Semi-major
42,164.9 km
B*
0.0000e+0
RAAN
56.7256°
Arg perigee
139.8111°
Mean anomaly
193.4096°
Rev number
793

§ Raw data

AEHF-2 (USA 235)1 38254U 12019A   26263.13158049 -.00000136  00000+0  00000+0 0  99942 38254   6.8655  56.7256 0002651 139.8111 193.4096  1.00271287  7932

JSON: /api/v1/satellites/38254 · /tle

For live sub-satellite position, see the globe view (requires WebGL).

§ Visibility from observer

Set your observer location to see the next 7 days of passes ≥ 10°. The values pass through the URL so the page stays shareable.

No JS? Fill the form by hand. The geolocation button needs JavaScript.